Location: Beutels
(47.8767°N, 9.8584°E)
Time: 00:40:00
(UTC+00:00)

Cosmos 2369 - Pass Details

Date: 19 May 2025
Orbit: 840 x 852 km, 71.0° (Epoch: 22 June)

Event Time Altitude Azimuth Distance (km) Brightness Sun altitude
Rises 21:31:00 0° 332° (NNW) 3,414 8.6 -18.1°
Reaches altitude 10° 21:33:27 10° 333° (NNW) 2,473 7.4 -18.3°
Maximum altitude 21:39:09 84° 62° (ENE) 853 3.7 -18.7°
Enters shadow 21:41:44 34° 149° (SSE) 1,355 4.2 -18.9°
